When you browse on this site, cookies collect data to enhance your experience and personalize the content and advertising you see.
Visit our Privacy Policy to learn more. By continuing to use the site, you agree to this use of cookies and data.
  • en France
  • Liste des pays
  • À 7 jours
  • Température de l'eau
  • Carte satellitaire
  • Carte météo
  • Widgets météo
  • user-avatar
    Se connecter

    Météo par heure à Bordeaux

    Ce jour, 21 Mars, Jeudi

    Heure Température Précipitation Vent Pression Humidité
    00:00 +7°C° 0 mm 2 m/s 772 mmHg 81%
    01:00 +6°C° 0 mm 2 m/s 772 mmHg 82%
    02:00 +6°C° 0 mm 2 m/s 772 mmHg 84%
    03:00 +5°C° 0 mm 2 m/s 772 mmHg 85%
    04:00 +5°C° 0 mm 2 m/s 772 mmHg 86%
    05:00 +4°C° 0 mm 2 m/s 772 mmHg 86%
    06:00 +5°C° 0 mm 1 m/s 772 mmHg 87%
    07:00 +6°C° 0 mm 2 m/s 772 mmHg 78%
    08:00 +8°C° 0 mm 2 m/s 772 mmHg 69%
    09:00 +9°C° 0 mm 2 m/s 772 mmHg 61%
    10:00 +12°C° 0 mm 2 m/s 772 mmHg 54%
    11:00 +14°C° 0 mm 2 m/s 772 mmHg 47%
    12:00 +16°C° 0 mm 2 m/s 771 mmHg 40%
    13:00 +17°C° 0 mm 2 m/s 771 mmHg 39%
    14:00 +17°C° 0 mm 2 m/s 770 mmHg 38%
    15:00 +18°C° 0 mm 2 m/s 770 mmHg 37%
    16:00 +16°C° 0 mm 2 m/s 770 mmHg 43%
    17:00 +15°C° 0 mm 2 m/s 770 mmHg 49%
    18:00 +14°C° 0 mm 1 m/s 770 mmHg 55%
    19:00 +12°C° 0 mm 1 m/s 770 mmHg 59%
    20:00 +11°C° 0 mm 1 m/s 770 mmHg 64%
    21:00 +10°C° 0 mm 1 m/s 770 mmHg 68%
    22:00 +9°C° 0 mm 1 m/s 770 mmHg 69%
    23:00 +9°C° 0 mm 1 m/s 770 mmHg 69%

    Demain, 22 Mars, Vendredi

    Heure Température Précipitation Vent Pression Humidité
    00:00 +8°C° 0 mm 1 m/s 770 mmHg 70%
    01:00 +8°C° 0 mm 1 m/s 770 mmHg 70%
    02:00 +8°C° 0 mm 1 m/s 770 mmHg 70%
    03:00 +7°C° 0 mm 1 m/s 770 mmHg 70%
    04:00 +7°C° 0 mm 1 m/s 770 mmHg 71%
    05:00 +7°C° 0 mm 1 m/s 770 mmHg 72%
    06:00 +6°C° 0 mm 1 m/s 770 mmHg 73%
    07:00 +9°C° 0 mm 1 m/s 770 mmHg 67%
    08:00 +10°C° 0 mm 2 m/s 770 mmHg 60%
    09:00 +13°C° 0 mm 2 m/s 770 mmHg 54%
    10:00 +15°C° 0 mm 2 m/s 770 mmHg 48%
    11:00 +17°C° 0 mm 2 m/s 770 mmHg 42%
    12:00 +20°C° 0 mm 1 m/s 770 mmHg 36%
    13:00 +21°C° 0 mm 1 m/s 770 mmHg 34%
    14:00 +22°C° 0 mm 1 m/s 769 mmHg 32%
    15:00 +21°C° 0 mm 0 m/s 769 mmHg 31%
    16:00 +19°C° 0 mm 0 m/s 769 mmHg 37%
    17:00 +19°C° 0 mm 1 m/s 769 mmHg 43%
    18:00 +16°C° 0 mm 1 m/s 769 mmHg 49%
    19:00 +15°C° 0 mm 1 m/s 769 mmHg 53%
    20:00 +13°C° 0 mm 1 m/s 770 mmHg 57%
    21:00 +12°C° 0 mm 1 m/s 770 mmHg 61%
    22:00 +12°C° 0 mm 1 m/s 770 mmHg 62%
    23:00 +11°C° 0 mm 1 m/s 770 mmHg 64%

    Après-demain, 23 Mars, Samedi

    Heure Température Précipitation Vent Pression Humidité
    00:00 +11°C° 0 mm 1 m/s 770 mmHg 65%
    01:00 +10°C° 0 mm 1 m/s 770 mmHg 66%
    02:00 +10°C° 0 mm 1 m/s 769 mmHg 68%
    03:00 +9°C° 0 mm 1 m/s 769 mmHg 69%
    04:00 +9°C° 0 mm 1 m/s 769 mmHg 70%
    05:00 +9°C° 0 mm 1 m/s 769 mmHg 71%
    06:00 +8°C° 0 mm 1 m/s 769 mmHg 72%
    07:00 +11°C° 0 mm 1 m/s 769 mmHg 66%
    08:00 +13°C° 0 mm 1 m/s 769 mmHg 59%
    09:00 +15°C° 0 mm 1 m/s 769 mmHg 53%
    10:00 +18°C° 0 mm 1 m/s 769 mmHg 48%
    11:00 +20°C° 0 mm 1 m/s 769 mmHg 44%
    12:00 +21°C° 0 mm 1 m/s 768 mmHg 39%
    13:00 +22°C° 0 mm 1 m/s 768 mmHg 38%
    14:00 +22°C° 0 mm 1 m/s 767 mmHg 37%
    15:00 +22°C° 0 mm 1 m/s 767 mmHg 36%
    16:00 +21°C° 0 mm 1 m/s 767 mmHg 41%
    17:00 +19°C° 0 mm 1 m/s 766 mmHg 47%
    18:00 +18°C° 0 mm 1 m/s 766 mmHg 53%
    19:00 +16°C° 0 mm 1 m/s 767 mmHg 56%
    20:00 +14°C° 0 mm 1 m/s 767 mmHg 59%
    21:00 +13°C° 0 mm 1 m/s 767 mmHg 62%
    22:00 +12°C° 0 mm 1 m/s 767 mmHg 66%
    23:00 +12°C° 0 mm 1 m/s 767 mmHg 70%

    24 Mars, Dimanche

    Heure Température Précipitation Vent Pression Humidité
    00:00 +11°C° 0 mm 1 m/s 766 mmHg 74%
    01:00 +11°C° 0 mm 1 m/s 766 mmHg 77%
    02:00 +10°C° 0 mm 1 m/s 766 mmHg 80%
    03:00 +10°C° 0 mm 1 m/s 766 mmHg 83%
    04:00 +9°C° 0 mm 1 m/s 766 mmHg 84%
    05:00 +9°C° 0 mm 1 m/s 766 mmHg 85%
    06:00 +9°C° 0 mm 1 m/s 766 mmHg 86%
    07:00 +11°C° 0 mm 1 m/s 766 mmHg 77%
    08:00 +13°C° 0 mm 1 m/s 767 mmHg 68%
    09:00 +15°C° 0 mm 1 m/s 767 mmHg 60%
    10:00 +18°C° 0 mm 1 m/s 767 mmHg 53%
    11:00 +19°C° 0 mm 2 m/s 767 mmHg 46%
    12:00 +20°C° 0 mm 2 m/s 767 mmHg 40%
    13:00 +21°C° 0 mm 2 m/s 766 mmHg 39%
    14:00 +21°C° 0 mm 2 m/s 766 mmHg 39%
    15:00 +21°C° 0 mm 3 m/s 766 mmHg 38%
    16:00 +20°C° 0 mm 3 m/s 766 mmHg 46%
    17:00 +18°C° 0 mm 3 m/s 766 mmHg 54%
    18:00 +17°C° 0 mm 3 m/s 766 mmHg 61%
    19:00 +14°C° 0 mm 3 m/s 766 mmHg 67%
    20:00 +13°C° 0 mm 3 m/s 767 mmHg 73%
    21:00 +12°C° 0 mm 3 m/s 767 mmHg 79%
    22:00 +11°C° 0 mm 3 m/s 767 mmHg 81%
    23:00 +11°C° 0 mm 3 m/s 767 mmHg 84%

    25 Mars, Lundi

    Heure Température Précipitation Vent Pression Humidité
    00:00 +10°C° 0 mm 2 m/s 767 mmHg 86%
    01:00 +10°C° 0 mm 3 m/s 767 mmHg 87%
    02:00 +9°C° 0 mm 3 m/s 767 mmHg 89%
    03:00 +9°C° 0 mm 3 m/s 767 mmHg 90%
    04:00 +8°C° 0 mm 3 m/s 767 mmHg 91%
    05:00 +8°C° 0 mm 2 m/s 767 mmHg 91%
    06:00 +8°C° 0 mm 2 m/s 767 mmHg 91%
    07:00 +9°C° 0 mm 3 m/s 767 mmHg 83%
    08:00 +11°C° 0 mm 3 m/s 767 mmHg 76%
    09:00 +13°C° 0 mm 4 m/s 768 mmHg 68%
    10:00 +14°C° 0 mm 4 m/s 768 mmHg 63%
    11:00 +17°C° 0 mm 4 m/s 767 mmHg 58%
    12:00 +18°C° 0 mm 4 m/s 767 mmHg 52%
    13:00 +17°C° 0 mm 5 m/s 767 mmHg 51%
    14:00 +19°C° 0 mm 5 m/s 767 mmHg 50%
    15:00 +19°C° 0 mm 5 m/s 766 mmHg 49%
    16:00 +17°C° 0 mm 5 m/s 766 mmHg 52%
    17:00 +15°C° 0 mm 4 m/s 766 mmHg 56%
    18:00 +14°C° 0 mm 4 m/s 766 mmHg 59%
    19:00 +13°C° 0 mm 4 m/s 767 mmHg 60%
    20:00 +12°C° 0 mm 4 m/s 767 mmHg 60%
    21:00 +11°C° 0 mm 4 m/s 768 mmHg 60%
    22:00 +10°C° 0 mm 4 m/s 768 mmHg 61%
    23:00 +8°C° 0 mm 4 m/s 768 mmHg 62%

    26 Mars, Mardi

    Heure Température Précipitation Vent Pression Humidité
    00:00 +8°C° 0 mm 4 m/s 768 mmHg 62%
    01:00 +7°C° 0 mm 4 m/s 768 mmHg 64%
    02:00 +7°C° 0 mm 4 m/s 768 mmHg 67%
    03:00 +6°C° 0 mm 4 m/s 768 mmHg 69%
    04:00 +6°C° 0 mm 4 m/s 768 mmHg 70%
    05:00 +6°C° 0 mm 4 m/s 769 mmHg 71%
    06:00 +5°C° 0 mm 4 m/s 769 mmHg 72%
    07:00 +7°C° 0 mm 4 m/s 769 mmHg 67%
    08:00 +8°C° 0 mm 5 m/s 769 mmHg 62%
    09:00 +10°C° 0 mm 5 m/s 769 mmHg 57%
    10:00 +12°C° 0 mm 5 m/s 769 mmHg 53%
    11:00 +13°C° 0 mm 5 m/s 769 mmHg 49%
    12:00 +15°C° 0 mm 5 m/s 769 mmHg 44%
    13:00 +15°C° 0 mm 5 m/s 768 mmHg 43%
    14:00 +16°C° 0 mm 5 m/s 768 mmHg 41%
    15:00 +16°C° 0 mm 5 m/s 768 mmHg 40%
    16:00 +15°C° 0 mm 5 m/s 768 mmHg 43%
    17:00 +14°C° 0 mm 5 m/s 768 mmHg 46%
    18:00 +13°C° 0 mm 5 m/s 768 mmHg 50%
    19:00 +12°C° 0 mm 5 m/s 768 mmHg 51%
    20:00 +10°C° 0 mm 5 m/s 769 mmHg 52%
    21:00 +9°C° 0 mm 5 m/s 769 mmHg 53%
    22:00 +8°C° 0 mm 5 m/s 769 mmHg 55%
    23:00 +7°C° 0 mm 4 m/s 769 mmHg 57%
    Voir plus